Weather History for Haleyville, AL

Change the Weather History Date:

Monday, March 18, 2013

  Actual Average (KJFX) Record (KJFX)
Temperature  
Mean Temperature 56 °F -  
Max Temperature 66 °F 66 °F 86 °F (1982)
Min Temperature 45 °F 38 °F 22 °F (1967)
Degree Days  
Heating Degree Days 8    
Growing Degree Days 6 (Base 50)    
Moisture  
Dew Point 56 °F    
Average Humidity 91    
Maximum Humidity 100    
Minimum Humidity 72    
Precipitation  
Precipitation 0.79 in - - ()
Sea Level Pressure  
Sea Level Pressure 29.87 in    
Wind  
Wind Speed 13 mph (SW)    
Max Wind Speed 32 mph    
Max Gust Speed 44 mph    
Visibility 6 miles    
Events Fog , Rain , Thunderstorm    
Averages and records for this station are not official NWS values.
T = Trace of Precipitation, MM = Missing Value Source: NWS Daily Summary

Daily Weather History Graph

Daily Weather History Graph

Search for Another Location

Airport:

Trip Planner

Search our weather history database for the weather conditions in past years. The results will help you decide how hot, cold, wet, or windy it might be!

Date:

Astronomy

Mar. 18, 2013 Rise Set
Actual Time 6:56 AM CDT 7:00 PM CDT
Civil Twilight 6:31 AM CDT 7:25 PM CDT
Nautical Twilight 6:02 AM CDT 7:54 PM CDT
Astronomical Twilight 5:32 AM CDT 8:24 PM CDT
Moon 11:10 AM CDT (3/18) 12:45 AM CDT (3/18)
Length of Visible Light 12h 54m
Length of Day
12h 04m
Waxing Crescent, 41% of the Moon is Illuminated
Mar 18
Waxing Crescent
Mar 19
First Quarter
Mar 27
Full
Apr 2
Last Quarter
Apr 10
New

Hourly Weather History & Observations

Time (CDT) Temp. Windchill Dew Point Humidity Pressure Visibility Wind Dir Wind Speed Gust Speed Precip Events Conditions
12:56 AM 61.0 °F - 55.9 °F 83% 29.90 in 10.0 mi South 9.2 mph - N/A   Overcast
1:56 AM 61.0 °F - 55.9 °F 83% 29.90 in 10.0 mi South 15.0 mph 24.2 mph N/A   Mostly Cloudy
2:21 AM 60.8 °F - 55.4 °F 82% 29.86 in 10.0 mi South 16.1 mph 23.0 mph N/A   Mostly Cloudy
2:56 AM 61.9 °F - 55.9 °F 81% 29.89 in 10.0 mi South 15.0 mph 21.9 mph N/A   Mostly Cloudy
3:56 AM 61.0 °F - 56.8 °F 86% 29.88 in 10.0 mi South 13.8 mph - N/A   Overcast
4:56 AM 59.9 °F - 56.8 °F 90% 29.87 in 10.0 mi South 15.0 mph - N/A   Overcast
5:10 AM 60.8 °F - 57.2 °F 88% 29.84 in 10.0 mi South 13.8 mph 20.7 mph N/A Thunderstorm Thunderstorm
5:27 AM 60.8 °F - 57.2 °F 88% 29.85 in 2.5 mi South 15.0 mph 26.5 mph 0.03 in Rain , Thunderstorm Heavy Thunderstorms and Rain
5:38 AM 59.0 °F - 57.2 °F 94% 29.84 in 1.5 mi South 12.7 mph 20.7 mph 0.09 in Rain , Thunderstorm Light Thunderstorms and Rain
5:43 AM 59.0 °F - 57.2 °F 94% 29.85 in 2.5 mi South 13.8 mph 23.0 mph 0.09 in Rain , Thunderstorm Light Thunderstorms and Rain
5:56 AM 59.0 °F - 57.9 °F 96% 29.88 in 7.0 mi South 13.8 mph - 0.09 in   Overcast
6:06 AM 59.0 °F - 57.2 °F 94% 29.84 in 7.0 mi South 12.7 mph 20.7 mph 0.00 in   Overcast
6:36 AM 59.0 °F - 59.0 °F 100% 29.85 in 7.0 mi South 13.8 mph - 0.00 in   Overcast
6:56 AM 59.0 °F - 57.9 °F 96% 29.89 in 8.0 mi South 10.4 mph 18.4 mph 0.00 in   Overcast
7:56 AM 59.9 °F - 59.0 °F 97% 29.89 in 6.0 mi South 13.8 mph - 0.00 in   Overcast
8:56 AM 59.9 °F - 59.9 °F 100% 29.89 in 3.0 mi SSW 16.1 mph 21.9 mph N/A   Overcast
9:20 AM 60.8 °F - 60.8 °F 100% 29.84 in 3.0 mi South 16.1 mph 20.7 mph N/A   Overcast
9:56 AM 59.9 °F - 59.9 °F 100% 29.88 in 1.8 mi SSW 16.1 mph - N/A   Overcast
10:05 AM 60.8 °F - 60.8 °F 100% 29.84 in 2.5 mi SSW 11.5 mph 27.6 mph N/A   Overcast
10:56 AM 61.0 °F - 61.0 °F 100% 29.87 in 2.5 mi SSW 18.4 mph 23.0 mph N/A   Overcast
11:07 AM 62.6 °F - 62.6 °F 100% 29.83 in 3.0 mi SSW 18.4 mph 24.2 mph N/A   Overcast
11:30 AM 62.6 °F - 62.6 °F 100% 29.83 in 6.0 mi SW 15.0 mph 23.0 mph N/A   Overcast
11:56 AM 63.0 °F - 61.0 °F 93% 29.87 in 6.0 mi SW 12.7 mph 21.9 mph N/A   Overcast
12:25 PM 62.6 °F - 62.6 °F 100% 29.81 in 4.0 mi SSW 17.3 mph 23.0 mph 0.00 in Thunderstorm Overcast
12:32 PM 64.4 °F - 60.8 °F 88% 29.80 in 6.0 mi SSW 15.0 mph 23.0 mph 0.00 in Thunderstorm Overcast
12:40 PM 64.4 °F - 62.6 °F 94% 29.80 in 7.0 mi SSW 16.1 mph 20.7 mph 0.00 in   Overcast
12:56 PM 65.8 °F - 61.0 °F 84% 29.85 in 8.0 mi SW 13.8 mph 21.9 mph 0.00 in   Overcast
1:17 PM 66.2 °F - 60.8 °F 83% 29.80 in 9.0 mi SW 10.4 mph - N/A   Overcast
1:56 PM 65.8 °F - 61.0 °F 84% 29.83 in 7.0 mi WSW 6.9 mph - 0.00 in Rain , Thunderstorm Light Thunderstorms and Rain
2:11 PM 64.4 °F - 62.6 °F 94% 29.80 in 1.0 mi Variable 6.9 mph - 0.15 in Rain , Thunderstorm Heavy Thunderstorms and Rain
2:14 PM 62.6 °F - 60.8 °F 94% 29.80 in 0.5 mi NW 8.1 mph - 0.18 in Fog , Rain , Thunderstorm Heavy Thunderstorms and Rain
2:22 PM 60.8 °F - 55.4 °F 82% 29.88 in 0.5 mi NW 32.2 mph 43.7 mph 0.38 in Fog , Rain , Thunderstorm Heavy Thunderstorms and Rain
2:30 PM 53.6 °F - 51.8 °F 94% 29.90 in 0.2 mi NW 19.6 mph 43.7 mph 0.49 in Fog , Rain , Thunderstorm Heavy Thunderstorms and Rain
2:33 PM 53.6 °F - 51.8 °F 94% 29.91 in 0.5 mi NW 16.1 mph 31.1 mph 0.50 in Fog , Rain , Thunderstorm Heavy Thunderstorms and Rain
2:35 PM 53.6 °F - 51.8 °F 94% 29.91 in 1.0 mi NW 13.8 mph 26.5 mph 0.51 in Rain , Thunderstorm Heavy Thunderstorms and Rain
2:38 PM 53.6 °F - 51.8 °F 94% 29.91 in 1.2 mi NW 20.7 mph 27.6 mph 0.52 in Rain , Thunderstorm Heavy Thunderstorms and Rain
2:41 PM 53.6 °F - 51.8 °F 94% 29.91 in 1.8 mi NW 12.7 mph 27.6 mph 0.52 in Rain , Thunderstorm Heavy Thunderstorms and Rain
2:47 PM 53.6 °F - 51.8 °F 94% 29.91 in 3.0 mi NW 13.8 mph 26.5 mph 0.53 in Rain , Thunderstorm Heavy Thunderstorms and Rain
2:56 PM 54.0 °F - 50.9 °F 89% 29.95 in 2.5 mi NW 13.8 mph 18.4 mph 0.57 in Rain , Thunderstorm Heavy Thunderstorms and Rain
3:06 PM 53.6 °F - 51.8 °F 94% 29.91 in 1.8 mi NW 11.5 mph 17.3 mph 0.05 in Rain , Thunderstorm Heavy Thunderstorms and Rain
3:22 PM 53.6 °F - 51.8 °F 94% 29.88 in 2.0 mi Calm Calm - 0.11 in Rain , Thunderstorm Heavy Thunderstorms and Rain
3:38 PM 53.6 °F - 51.8 °F 94% 29.82 in 6.0 mi Calm Calm - 0.13 in Rain , Thunderstorm Light Thunderstorms and Rain
3:48 PM 53.6 °F - 51.8 °F 94% 29.80 in 10.0 mi Calm Calm - 0.13 in Rain Light Rain
3:56 PM 54.0 °F - 52.9 °F 96% 29.83 in 10.0 mi North 5.8 mph - 0.13 in Rain Light Rain
4:56 PM 61.0 °F - 52.0 °F 72% 29.83 in 10.0 mi SW 4.6 mph - 0.00 in   Clear
5:56 PM 59.9 °F - 52.0 °F 75% 29.83 in 10.0 mi WSW 5.8 mph - N/A   Clear
6:56 PM 59.0 °F - 52.0 °F 78% 29.86 in 10.0 mi Variable 4.6 mph - N/A   Clear
7:56 PM 56.8 °F - 52.0 °F 84% 29.90 in 10.0 mi NNW 9.2 mph - N/A   Mostly Cloudy
8:56 PM 52.9 °F - 48.9 °F 86% 29.94 in 10.0 mi NW 10.4 mph - N/A   Mostly Cloudy
9:24 PM 51.8 °F - 46.4 °F 82% 29.92 in 10.0 mi NNW 9.2 mph - N/A   Overcast
9:56 PM 50.9 °F - 45.9 °F 83% 29.98 in 10.0 mi North 11.5 mph - N/A   Overcast
10:56 PM 47.8 °F - 43.9 °F 86% 30.01 in 10.0 mi North 8.1 mph - N/A   Scattered Clouds
11:56 PM 45.9 °F 40.8 °F 41.9 °F 86% 30.03 in 10.0 mi North 10.4 mph - N/A   Clear